Tracking 20066 objects as of 7-Dec-2019
HD Live streaming from Space Station
objects crossing your sky now

METEOR PRIRODA

Track METEOR PRIRODA now!
10-day predictions
METEOR PRIRODA is classified as:


NORAD ID: 12585
Int'l Code: 1981-065A
Perigee: 497.6 km
Apogee: 519.2 km
Inclination: 97.5 °
Period: 94.6 minutes
Semi major axis: 6879 km
RCS: 4.6163 m2 (large)
Launch date: July 10, 1981
Source: Commonwealth of Independent States (former USSR) (CIS)
Launch site: TYURATAM MISSILE AND SPACE COMPLEX (TTMTR)
aabbcc
Your satellite tracking list
Your tracking list is empty




NASA's NSSDC Master Catalog

Two Line Element Set (TLE):
1 12585U 81065A   19340.52174566  .00000378  00000-0  19942-4 0  9991
2 12585  97.5306 323.7522 0015710 122.9673 237.3075 15.21507418 99437
Source of the keplerian elements: AFSPC